Content
SEND FEEDBACK

Daily
Averages
Monthly
Summary
United States of America

COPPERAS COVE, TEXAS


Home > North America > United States > Texas
Elevation: 1015 feet     Latitude: 31 04N     Longitude: 097 50W

WEATHER
 
SELECT A DAY
Number of Records: 190,077;   Date Range: 1/1/95 - 8/30/14
 
SHARE

PRINT THIS DATA

[ ← Previous Day ]
WEATHER ALMANAC - FEBRUARY 13, 2013
[ Next Day → ]
[ °C ]   °F
Weather ElementAverageHighLow
Temperature46.6 °F60.8 °F (4:55 pm)35.6 °F (6:55 am)
Dewpoint33.9 °F37.4 °F (10:55 pm)28.4 °F (6:55 pm)
Humidity64.6 %93 % (6:55 am)31 % (4:55 pm)
Barometer30.11 in30.19 in (9:55 am)30.06 in (12:55 am)
Wind Speed8 mph15 mph (12:55 am)
Wind Gust23 mph (12:55 am)
Weather ElementAverage
Visibility7 mi
Wind DirectionSSW (215.8 °)

Weather ElementTotal
Precipitation---
Heating Degree Days16.8 (Base 65)
Averaged from 26 records on February 13, 2013
WEATHER CONDITIONS BREAKOUT
WIND DIRECTION BREAKOUT
WEATHER BY HOUR - FEBRUARY 13, 2013
[ °C ]   °F
Local TimeTemperatureDewpointHumidityBarometerVisibilityWind DirectionWind SpeedGust SpeedPrecipitationEventsConditions
12:55 AM42.8 °F33.8 °F70 %30.06 in7.0 miWest (270°)15.0 mph23.0 mphClear
1:55 AM39.2 °F33.8 °F81 %30.09 in7.0 miWest (280°)13.8 mphClear
2:37 AM39.2 °F33.8 °F81 %30.08 in7.0 miWest (270°)9.2 mphMostly Cloudy
2:55 AM39.2 °F33.8 °F81 %30.11 in7.0 miWest (260°)8.1 mphMostly Cloudy
3:55 AM41.0 °F33.8 °F76 %30.12 in7.0 miWest (280°)10.4 mphOvercast
4:55 AM41.0 °F33.8 °F76 %30.11 in7.0 miWNW (290°)15.0 mphMostly Cloudy
5:55 AM39.2 °F33.8 °F81 %30.11 in7.0 miWest (280°)8.1 mphMostly Cloudy
6:00 AM39.2 °F33.8 °F81 %30.11 in7.0 miWest (270°)8.1 mphScattered Clouds
6:55 AM35.6 °F33.8 °F93 %30.14 in7.0 miWSW (240°)6.9 mphPartly Cloudy
7:55 AM37.4 °F33.8 °F87 %30.16 in7.0 miSW (230°)5.8 mphPartly Cloudy
8:55 AM42.8 °F33.8 °F70 %30.18 in7.0 miWSW (250°)6.9 mphPartly Cloudy
9:55 AM44.6 °F33.8 °F66 %30.19 in7.0 miWNW (300°)8.1 mphPartly Cloudy
10:55 AM48.2 °F35.6 °F62 %30.18 in7.0 miNW (310°)10.4 mphClear
11:55 AM51.8 °F35.6 °F54 %30.16 in7.0 miNNW (330°)9.2 mphClear
12:55 PM53.6 °F35.6 °F51 %30.13 in7.0 miNNW (340°)9.2 mphClear
1:55 PM57.2 °F33.8 °F41 %30.10 in7.0 miNNW (330°)6.9 mphClear
2:55 PM59.0 °F33.8 °F39 %30.08 in7.0 miNNW (330°)10.4 mphClear
3:55 PM59.0 °F30.2 °F34 %30.06 in7.0 miCalmClear
4:55 PM60.8 °F30.2 °F31 %30.06 in7.0 miVariable6.9 mphClear
5:55 PM57.2 °F30.2 °F36 %30.06 in7.0 miNorth (10°)4.6 mphClear
6:55 PM55.4 °F28.4 °F36 %30.07 in7.0 miCalmClear
7:55 PM51.8 °F35.6 °F54 %30.09 in7.0 miEast (90°)6.9 mphClear
8:55 PM46.4 °F35.6 °F66 %30.10 in7.0 miSE (140°)5.8 mphClear
9:55 PM44.6 °F35.6 °F71 %30.10 in7.0 miSSE (160°)5.8 mphClear
10:55 PM42.8 °F37.4 °F81 %30.10 in7.0 miSouth (170°)6.9 mphClear
11:55 PM42.8 °F37.4 °F81 %30.09 in7.0 miSouth (180°)9.2 mphClear
Hourly data recorded from KGRK, located miles away from Copperas Cove, Texas







STORIES FROM OUR PARTNERS